Weather observations for the past three days for
Cocoa - Patrick Air Force Base
| Date | Time (edt) | Wind (kph) | Vis. (km) | Weather | Sky Cond. | Temperature (ºC) | Relative Humidity | Wind Chill (°C) | Heat Index (°C) | Pressure | Precipitation (cm) | ||||||
|---|---|---|---|---|---|---|---|---|---|---|---|---|---|---|---|---|---|
| Air | Dwpt | 6 hour | altimeter (cm) | sea level (mb) | 1 hr | 3 hr | 6 hr | ||||||||||
| Max. | Min. | ||||||||||||||||
| 03 | 19:55 | NE 22 | 16.09 | A Few Clouds | FEW031 FEW042 | 23.5 | 17.2 | 25.2 | 22.8 | 68% | 76.1 | 1015.0 | |||||
| 03 | 18:55 | NE 20 | 16.09 | Mostly Cloudy | BKN039 | 23.8 | 17.3 | 67% | 76.1 | 1015.0 | |||||||
| 03 | 17:55 | NE 20 | 16.09 | A Few Clouds | FEW049 | 23.6 | 17.1 | 67% | 76.1 | 1015.0 | |||||||
| 03 | 16:55 | NE 24 | 16.09 | Mostly Cloudy | BKN032 | 23.7 | 17.4 | 68% | 76.12 | 1015.3 | |||||||
| 03 | 15:55 | NE 24 | 16.09 | A Few Clouds | FEW160 FEW190 | 24.6 | 17.6 | 65% | 26 | 76.15 | 1015.7 | ||||||
| 03 | 14:55 | NE 24 | 16.09 | Partly Cloudy | FEW031 SCT190 | 24.4 | 17.4 | 65% | 25 | 76.2 | 1016.3 | ||||||
| 03 | 13:55 | N 28 | 16.09 | A Few Clouds | FEW027 FEW180 | 23.6 | 17.6 | 24.1 | 21.1 | 69% | 76.25 | 1017.0 | |||||
| 03 | 12:55 | N 19 | 16.09 | Partly Cloudy | SCT030 | 23.4 | 17.4 | 69% | 76.25 | 1017.0 | |||||||
| 03 | 11:55 | NE 19 | 16.09 | Light Drizzle | BKN029 | 23.1 | 17.5 | 71% | 76.28 | 1017.4 | |||||||
| 03 | 10:55 | NE 26 | 16.09 | A Few Clouds | FEW027 | 22.7 | 17.6 | 73% | 76.25 | 1017.0 | |||||||
| 03 | 09:55 | N 26 G 35 | 16.09 | Fair | CLR | 22.3 | 17.4 | 74% | 76.17 | 1016.0 | |||||||
| 03 | 08:55 | N 19 | 16.09 | Mostly Cloudy | BKN039 | 22 | 17.3 | 75% | 76.15 | 1015.7 | |||||||
| 03 | 07:55 | N 17 | 16.09 | Partly Cloudy | SCT036 | 21 | 18 | 21.8 | 20.1 | 83% | 76.1 | 1015.0 | |||||
| 03 | 06:55 | N 20 | 16.09 | Fair | CLR | 20.5 | 18.1 | 86% | 76.05 | 1014.3 | |||||||
| 03 | 05:55 | N 20 | 16.09 | Light Rain | FEW010 | 20.2 | 18.5 | 90% | 76.05 | 1014.3 | |||||||
| 03 | 04:55 | N 19 G 30 | 16.09 | Light Rain | FEW003 SCT010 | 20.7 | 19 | 90% | 76 | 1013.6 | |||||||
| 03 | 03:55 | N 19 | 16.09 | Partly Cloudy | FEW012 SCT027 | 21 | 18.7 | 87% | 75.97 | 1013.3 | |||||||
| 03 | 02:55 | N 24 | 16.09 | Mostly Cloudy | BKN008 | 20.7 | 19 | 90% | 75.97 | 1013.3 | |||||||
| 03 | 01:55 | N 28 G 37 | 16.09 | Light Rain | FEW044 | 21.9 | 19.6 | 24.8 | 21.9 | 87% | 76 | 1013.6 | |||||
| 03 | 00:55 | W 26 | 16.09 | Mostly Cloudy | BKN046 | 23.9 | 20 | 79% | 24 | 75.97 | 1013.3 | ||||||
| 02 | 23:55 | W 24 | 16.09 | Mostly Cloudy | BKN050 | 24.6 | 19.4 | 73% | 25 | 75.9 | 1012.3 | ||||||
| 02 | 22:55 | W 15 | 16.09 | A Few Clouds | FEW160 | 23.7 | 20 | 80% | 75.87 | 1011.9 | |||||||
| 02 | 21:55 | W 17 | 16.09 | Fair | CLR | 23.9 | 20.4 | 81% | 24 | 75.82 | 1011.3 | ||||||
| 02 | 20:55 | SW 19 | 16.09 | Fair | CLR | 24.1 | 20.2 | 79% | 25 | 75.74 | 1010.2 | ||||||
| 02 | 19:55 | SW 30 | 16.09 | Fair | CLR | 24 | 20.3 | 31.9 | 23.9 | 80% | 24 | 75.72 | 1009.9 | ||||
| 02 | 18:55 | W 31 | 16.09 | Fair | CLR | 24.8 | 18.9 | 70% | 26 | 75.72 | 1009.9 | ||||||
| 02 | 17:55 | W 28 | 16.09 | Overcast | SCT090 SCT130 OVC200 | 24.2 | 19.2 | 74% | 25 | 75.69 | 1009.6 | ||||||
| 02 | 16:55 | NW 41 G 52 | 16.09 | Fair and Breezy | CLR | 26.4 | 19.5 | 66% | 28 | 75.74 | 1010.2 | ||||||
| 02 | 15:55 | W 26 | 16.09 | Partly Cloudy | SCT190 | 31.2 | 20.7 | 54% | 34 | 75.64 | 1008.9 | ||||||
| 02 | 14:55 | W 24 | 16.09 | Partly Cloudy | FEW100 SCT200 | 31.6 | 20.5 | 52% | 34 | 75.72 | 1009.9 | ||||||
| 02 | 13:55 | SW 22 | 16.09 | Mostly Cloudy | BKN100 BKN200 | 31.4 | 20.9 | 31.7 | 23.3 | 54% | 34 | 75.69 | 1009.6 | ||||
| 02 | 12:55 | W 17 | 16.09 | Light Rain | SCT039 SCT110 BKN140 BKN190 | 30.9 | 21.6 | 58% | 34 | 75.74 | 1010.2 | ||||||
| 02 | 11:55 | SW 19 | 16.09 | Partly Cloudy | FEW150 SCT190 SCT210 | 29.9 | 21.5 | 61% | 33 | 75.77 | 1010.6 | ||||||
| 02 | 10:55 | SW 19 | 16.09 | Partly Cloudy | FEW055 FEW070 SCT200 | 28.3 | 21.5 | 67% | 31 | 75.79 | 1010.9 | ||||||
| 02 | 09:55 | SW 20 | 16.09 | A Few Clouds | FEW024 FEW200 | 27.3 | 18.6 | 59% | 28 | 75.77 | 1010.6 | ||||||
| 02 | 08:55 | SW 17 | 16.09 | Fair | CLR | 25.6 | 20.8 | 75% | 27 | 75.74 | 1010.2 | ||||||
| 02 | 07:55 | SW 15 | 16.09 | Fair | CLR | 23.4 | 21.3 | 25 | 22.2 | 88% | 75.74 | 1010.2 | |||||
| 02 | 06:55 | SW 11 | 16.09 | Fair | CLR | 22.2 | 20.5 | 90% | 75.69 | 1009.6 | |||||||
| 02 | 05:55 | W 13 | 16.09 | Fair | CLR | 22.6 | 20.1 | 86% | 75.69 | 1009.6 | |||||||
| 02 | 04:55 | SW 19 | 16.09 | Mostly Cloudy | BKN200 | 23.4 | 20.3 | 83% | 75.72 | 0.0 | |||||||
| 02 | 03:55 | W 17 | 16.09 | A Few Clouds | FEW210 | 23.8 | 20.1 | 80% | 75.69 | 1009.6 | |||||||
| 02 | 02:55 | SW 19 | 16.09 | Partly Cloudy | SCT210 | 24.4 | 19.7 | 75% | 25 | 75.69 | 1009.6 | ||||||
| 02 | 01:55 | SW 19 | 16.09 | Partly Cloudy | SCT200 | 25 | 19.6 | 27 | 24.9 | 72% | 26 | 75.72 | 1009.9 | ||||
| 02 | 00:55 | SW 15 | 16.09 | Fair | CLR | 25.7 | 19.8 | 70% | 27 | 75.72 | 1009.9 | ||||||
| 01 | 23:55 | S 19 | 16.09 | Fair | CLR | 26.4 | 20.9 | 72% | 28 | 75.72 | 1009.9 | ||||||
| 01 | 22:55 | S 15 | 16.09 | Fair | CLR | 26.5 | 23.7 | 85% | 29 | 75.74 | 1010.2 | ||||||
| 01 | 21:55 | SE 22 | 16.09 | Fair | CLR | 26.6 | 23.4 | 83% | 29 | 75.72 | 1009.9 | ||||||
| 01 | 20:55 | SE 22 | 16.09 | Fair | CLR | 26.4 | 22.8 | 81% | 28 | 75.69 | 1009.6 | ||||||
| 01 | 19:55 | SE 24 | 16.09 | Fair | CLR | 26.6 | 22.6 | 29.8 | 26.6 | 79% | 29 | 75.64 | 1008.9 | ||||
| 01 | 18:55 | SE 26 | 16.09 | Fair | CLR | 27.9 | 22.1 | 71% | 31 | 75.59 | 1008.2 | ||||||
| 01 | 17:55 | Calm | 16.09 | Fair | CLR | 28 | 0 | 0% | 75.62 | 1008.6 | |||||||
| 01 | 16:55 | Calm | 0.00 | Fair | CLR | 0 | 0 | 0% | 0 | 0.0 | |||||||
| 01 | 15:55 | Calm | 0.00 | Fair | CLR | 29 | 0 | 0% | 75.69 | 1009.6 | |||||||
| 01 | 14:55 | Calm | 0.00 | Fair | CLR | 0 | 0 | 0% | 75.74 | 0.0 | |||||||
| 01 | 13:55 | Calm | 16.09 | NULL | NULL | 29 | 0 | 29.6 | 24 | 0% | 75.79 | 1010.9 | |||||
| 01 | 12:55 | Calm | 0.00 | A Few Clouds | FEW200 | 29 | 0 | 0% | 75.82 | 1011.3 | |||||||
| 01 | 11:55 | E 13 | 16.09 | Fair | CLR | 28.5 | 21.2 | 65% | 31 | 75.82 | 1011.3 | ||||||
| 01 | 10:55 | W 7 | 16.09 | Fair | CLR | 28 | 21 | 66% | 30 | 75.87 | 1011.9 | ||||||
| 01 | 09:55 | W 15 | 16.09 | Fair | CLR | 27.2 | 21.9 | 73% | 29 | 75.87 | 1011.9 | ||||||
| 01 | 08:55 | W 17 | 16.09 | Fair | CLR | 25.4 | 22.1 | 82% | 27 | 75.87 | 1011.9 | ||||||
| 01 | 07:55 | W 13 | 16.09 | A Few Clouds | FEW220 | 24 | 21.7 | 24.9 | 23.1 | 87% | 24 | 75.79 | 1010.9 | ||||
| 01 | 06:55 | W 17 | 16.09 | Mostly Cloudy | BKN180 | 23.5 | 21.2 | 87% | 75.82 | 1011.3 | |||||||
| 01 | 05:55 | W 13 | 16.09 | Partly Cloudy | SCT180 | 23.3 | 21.2 | 88% | 75.82 | 1011.3 | |||||||
| 01 | 04:55 | W 20 | 16.09 | Fair | CLR | 23.4 | 20.9 | 86% | 75.77 | 1010.6 | |||||||
| 01 | 03:55 | W 20 | 16.09 | Fair | CLR | 23.6 | 20.5 | 83% | 75.77 | 1010.6 | |||||||
| 01 | 02:55 | W 19 | 16.09 | Fair | CLR | 24.1 | 20 | 78% | 25 | 75.77 | 0.0 | ||||||
| 01 | 01:55 | W 19 | 16.09 | Fair | CLR | 25 | 19.6 | 28.2 | 24.9 | 72% | 26 | 75.77 | 1010.6 | ||||
| 01 | 00:55 | W 15 | 16.09 | Fair | CLR | 25.2 | 19.3 | 70% | 26 | 75.79 | 1010.9 | ||||||
| 30 | 23:55 | W 19 | 16.09 | Fair | CLR | 26.2 | 18.8 | 64% | 27 | 75.82 | 1011.3 | ||||||
| 30 | 22:55 | W 15 | 16.09 | Fair | CLR | 26.9 | 18.7 | 61% | 28 | 75.79 | 1010.9 | ||||||
| 30 | 21:55 | W 17 | 16.09 | Fair | CLR | 27.6 | 18.3 | 57% | 29 | 75.79 | 1010.9 | ||||||
| 30 | 20:55 | S 9 | 16.09 | Mostly Cloudy | BKN170 | 27.5 | 20 | 64% | 29 | 75.72 | 1009.9 | ||||||
| Date | Time (edt) | Wind (kph) | Vis. (km) | Weather | Sky Cond. | Air | Dwpt | Max. | Min. | Relative Humidity | Wind Chill (°C) | Heat Index (°C) | altimeter (cm) | sea level (mb) | 1 hr | 3 hr | 6 hr |
| 6 hour | |||||||||||||||||
| Temperature (ºC) | Pressure | Precipitation (cm) | |||||||||||||||